J Percy Priest Observed Data For Previous 48 Hours

Caption
Day and Hour Reservoir Elevation (behind dam)* Tailwater Elevation (below dam)* Average Hourly Discharge*
12/10/2018 1 AM CST 484.86 394.82 0
12/10/2018 2 AM CST 484.99 394.82 0
12/10/2018 3 AM CST 485.05 394.71 0
12/10/2018 4 AM CST 485.07 394.68 0
12/10/2018 5 AM CST 485.08 394.68 0
12/10/2018 6 AM CST 485.08 394.68 0
12/10/2018 7 AM CST 485.12 396.06 0
12/10/2018 8 AM CST 485.16 397.43 4,700
12/10/2018 9 AM CST 485.16 397.44 4,700
12/10/2018 10 AM CST 485.17 397.77 4,700
12/10/2018 11 AM CST 485.18 397.56 4,700
12/10/2018 12 PM CST 485.18 397.65 4,700
12/10/2018 1 PM CST 485.18 397.86 4,700
12/10/2018 2 PM CST 485.19 397.65 4,700
12/10/2018 3 PM CST 485.18 397.84 4,700
12/10/2018 4 PM CST 485.19 397.84 4,700
12/10/2018 5 PM CST 485.18 397.75 4,700
12/10/2018 6 PM CST 485.17 397.78 4,700
12/10/2018 7 PM CST 485.17 397.75 4,700
12/10/2018 8 PM CST 485.16 397.85 4,700
12/10/2018 9 PM CST 485.16 397.99 4,700
12/10/2018 10 PM CST 485.19 395.40 0
12/10/2018 11 PM CST 485.21 395.21 0
12/11/2018 12 AM CST 485.24 395.11 0
12/11/2018 1 AM CST 485.27 394.95 0
12/11/2018 2 AM CST 485.31 394.85 0
12/11/2018 3 AM CST 485.31 394.79 0
12/11/2018 4 AM CST 485.34 394.69 0
12/11/2018 5 AM CST 485.33 396.63 4,700
12/11/2018 6 AM CST 485.34 397.34 4,700
12/11/2018 7 AM CST 485.32 397.52 4,700
12/11/2018 8 AM CST 485.30 397.50 4,700
12/11/2018 9 AM CST 485.30 397.70 4,700
12/11/2018 10 AM CST 485.29 397.99 4,700
12/11/2018 11 AM CST 485.28 397.78 4,700
12/11/2018 12 PM CST 485.28 394.88 0
12/11/2018 1 PM CST 485.27 394.90 0
12/11/2018 2 PM CST 485.29 395.41 0
12/11/2018 3 PM CST 485.32 395.02 0
12/11/2018 4 PM CST 485.31 397.41 4,700
12/11/2018 5 PM CST 485.32 397.42 4,700
12/11/2018 6 PM CST 485.33 397.53 4,700
12/11/2018 7 PM CST 485.30 397.30 4,700
12/11/2018 8 PM CST 485.28 397.25 4,700
12/11/2018 9 PM CST 485.27 397.20 4,700
12/11/2018 10 PM CST 485.26 397.18 4,700
12/11/2018 11 PM CST 485.25 395.50 0
12/12/2018 12 AM CST 485.25 394.75 0

Elevations are in feet above sea level. Discharges are in cubic feet per second and are reported at the end of the hour.